Powrót do katalogu

FENGYUN 1C DEB

AktywnyPO
NORAD 31329·DEBRIS·🇨🇳 China

Wystrzelony May 10, 1999 z Taiyuan Satellite Launch Center

Loading…

Następne Przeloty (najbliższe 24 godziny)

TLE

Starzejące sięSource: Space-Track

Epoka: Sep 7, 2026, 07:21 UTC

1 31329U 99025BQH 26250.30659293  .00003721  00000-0  59996-3 0  9999
2 31329  98.9068 265.6282 0050237 334.8214  25.0541 14.71322750 65609

Śledź FENGYUN 1C DEB w czasie rzeczywistym z AllMySat

Download on the App Store